User: anonymous   Login
Location: Bennemühlen
(52.5740°N, 9.7135°E)
Time: 15:25:28
(UTC+00:00)
Language:

Tiros 1 despin weight - Orbit

View from above orbital plane
View from above orbital plane
View from above satellite
View from above satellite

Ground track
Ground track

The orbit is defined by the following mean orbital elements,

1 00115U          26039.29118977 +.00000000 +00000-0 +35147-3 0 00007
2 00115  48.1637  14.6211 0026842  36.1231 324.1494 14.97259038    06
Epoch (UTC): 08 February 2026 06:59:18
Eccentricity: 0.0026842
inclination: 48.1637°
perigee height: 557 km
apogee height: 594 km
right ascension of ascending node: 14.6211°
argument of perigee: 36.1231°
revolutions per day: 14.97259038
mean anomaly at epoch: 324.1494°

The dashed part of the orbit path shows where the satellite is in the earth's shadow,  

DLR